Regional Weather Roundup
Issued by NWS

Home | Current Version | Previous Version | Text Only | Print | Product List | Glossary On
Versions: 1 2 3 4 5 6 7 8 9 10 11 12 13 14 15 16 17 18 19 20 21 22 23 24 25 26 27 28 29 30 31 32 33 34 35 36 37 38 39 40 41 42 43 44 45 46 47 48 49 50
124
ASUS42 KFFC 012303
RWRGA
WEATHER ROUNDUP FOR GEORGIA
NATIONAL WEATHER SERVICE PEACHTREE CITY GA
700 PM EDT SUN MAY 01 2016

NOTE: "FAIR" INDICATES FEW OR NO CLOUDS BELOW 12,000 FEET WITH NO
SIGNIFICANT WEATHER AND/OR OBSTRUCTIONS TO VISIBILITY.

* = USE WITH CAUTION. THE STATIONS MARKED WITH AN ASTERISK MAY NOT
REPORT WEATHER SUCH AS PRECIPITATION, FOG, OR THUNDER AND ARE NOT
QUALITY CONTROLLED BY NWS.

THE REMARK "TC" DENOTES TEMPERATURE READING IN DEGREES CELSIUS.

GAZ001>058-020000-
NORTH GEORGIA

CITY           SKY/WX    TMP DP  RH WIND       PRES   REMARKS
ATLANTA        CLOUDY    75  64  68 CALM      30.01S
ATHENS         CLOUDY    78  71  79 CALM      29.99S
CHAMBLEE       CLOUDY    69  67  93 SW5       30.01S
PEACHTREE CITY CLOUDY    76  69  79 CALM      30.02R
ROME           CLOUDY    76  67  73 SW3       30.01R THUNDER
WEST ATLANTA   CLOUDY    72  66  81 CALM      30.01S
GAINESVILLE    PTSUNNY   74  65  73 W6        30.03S
CARTERSVILLE   PTSUNNY   74  69  85 S5        30.01S


CITY           SKY/WX    TMP DP  RH WIND       PRES   REMARKS
DALTON*        CLOUDY    75  68  78 S5        30.00R
LAWRENCEVILLE* MOSUNNY   72  68  88 CALM      30.02F
MARIETTA       CLOUDY    71  70  96 W5        30.01F
KENNESAW*      PTSUNNY   73  66  78 SW5       29.99R
CANTON*        PTSUNNY   73  61  64 CALM      30.03S
BLAIRSVILLE*     N/A    N/A N/A N/A MISG      30.04R
$$

GAZ059>098-102>109-020000-
CENTRAL GEORGIA

CITY           SKY/WX    TMP DP  RH WIND       PRES   REMARKS
AUGUSTA-BUSH   CLOUDY    80  70  71 S10       29.98R
AUGUSTA-DANIEL LGT RAIN  79  70  74 VRB5      30.00R
COLUMBUS       PTSUNNY   81  66  60 W6        29.98R
MACON          CLOUDY    83  65  54 W5        29.98S
ROBINS AFB     CLOUDY    85  65  50 W5        29.97S


CITY           SKY/WX    TMP DP  RH WIND       PRES   REMARKS
LAGRANGE*      PTSUNNY   78  75  90 W3        30.01S
SYLVANIA*      CLOUDY    71  70  96 S5        30.04S
MILLEDGEVILLE* CLOUDY    81  70  69 CALM      29.99S
$$

GAZ099>101-110>166-020000-
SOUTH GEORGIA

CITY           SKY/WX    TMP DP  RH WIND       PRES   REMARKS
SAVANNAH       CLOUDY    74  63  68 NE5       30.06R
VALDOSTA       PTSUNNY   85  68  56 VRB3      29.98S
ALMA           PTSUNNY   82  70  66 SE9       30.00R
ST SIMONS      MOSUNNY   77  72  84 SE9       30.03R
FT STEWART     CLOUDY    70  66  88 N13       30.04R
ALBANY         MOSUNNY   85  66  53 SW5       29.99S
HUNTER AFB     CLOUDY    77  71  82 E3        30.04R
MOODY AFB      PTSUNNY   87  63  44 S7        29.98R
BRUNSWICK      MOSUNNY   82  73  74 SE6       30.04R


CITY           SKY/WX    TMP DP  RH WIND       PRES   REMARKS
BAINBRIDGE*    SUNNY     84  63  48 S8        29.98S
MOULTRIE*      MOSUNNY   86  63  45 SW7       29.99S
VIDALIA*       CLOUDY    72  68  88 SE6       30.02R
WAYCROSS*      PTSUNNY   79  71  75 SE8       30.00R
DOUGLAS*       MOSUNNY   86  64  48 SW3       30.00S
$$




USA.gov is the U.S. government's official web portal to all federal, state and local government web resources and services.